Precipitable_Water
0.49 0.49 0.50 0.50 0.49 0.49 0.48 0.48 0.47 0.47 0.46 0.45 0.45 0.44 0.44 0.44 0.43 0.44 0.43 0.43 0.42 0.42 0.41 0.40 0.41 0.42 0.42 0.42 0.41 0.40 0.40 0.32 0.27 0.26 0.23 0.26 0.32 0.35 0.37 0.38 0.37 0.37 0.42 0.37 0.36 0.34 0.29 0.32 0.30 0.32 0.30 0.26 0.25 0.19 0.24 0.22 0.25 0.21 0.15 0.14 0.12 0.11 0.10 0.13 0.11 0.13 0.16 0.13 0.18 0.20 0.20 0.19 0.18 0.22 0.23 0.27 0.49 0.46 0.64 0.67 0.87 0.95 0.99 1.10 1.16 1.24 1.30 1.39
0.50 0.49 0.49 0.49 0.49 0.48 0.48 0.47 0.47 0.46 0.45 0.45 0.44 0.44 0.44 0.43 0.44 0.43 0.43 0.42 0.42 0.41 0.40 0.40 0.39 0.39 0.40 0.40 0.41 0.41 0.37 0.30 0.25 0.27 0.26 0.37 0.33 0.38 0.42 0.44 0.42 0.38 0.44 0.34 0.30 0.29 0.27 0.27 0.29 0.28 0.26 0.23 0.25 0.20 0.22 0.20 0.23 0.17 0.16 0.14 0.12 0.13 0.14 0.15 0.15 0.13 0.12 0.16 0.17 0.19 0.20 0.19 0.19 0.22 0.23 0.22 0.27 0.28 0.35 0.62 0.71 0.83 0.95 1.05 1.13 1.24 1.31 1.39
0.49 0.49 0.49 0.49 0.49 0.48 0.47 0.46 0.46 0.45 0.44 0.44 0.44 0.43 0.43 0.43 0.43 0.43 0.43 0.42 0.42 0.41 0.40 0.39 0.39 0.39 0.36 0.38 0.39 0.40 0.35 0.25 0.29 0.27 0.33 0.40 0.37 0.42 0.46 0.46 0.43 0.40 0.39 0.30 0.30 0.30 0.27 0.26 0.28 0.25 0.23 0.22 0.19 0.21 0.18 0.23 0.19 0.18 0.17 0.14 0.13 0.15 0.16 0.16 0.13 0.16 0.17 0.17 0.17 0.18 0.19 0.18 0.21 0.22 0.24 0.23 0.27 0.27 0.32 0.38 0.66 0.72 0.87 0.98 1.09 1.19 1.24 1.23
0.49 0.49 0.49 0.49 0.48 0.47 0.46 0.46 0.45 0.44 0.43 0.43 0.43 0.43 0.43 0.43 0.43 0.43 0.43 0.42 0.41 0.41 0.40 0.39 0.39 0.39 0.38 0.36 0.38 0.40 0.32 0.22 0.23 0.31 0.42 0.41 0.39 0.46 0.51 0.46 0.44 0.39 0.45 0.38 0.34 0.33 0.32 0.32 0.29 0.26 0.22 0.20 0.19 0.23 0.15 0.25 0.15 0.19 0.16 0.13 0.15 0.19 0.14 0.17 0.15 0.17 0.18 0.18 0.17 0.18 0.19 0.18 0.21 0.22 0.23 0.25 0.25 0.25 0.29 0.41 0.54 0.75 0.92 0.98 1.07 1.08 1.11 1.12
0.48 0.48 0.48 0.47 0.47 0.47 0.45 0.45 0.44 0.43 0.43 0.42 0.41 0.41 0.42 0.43 0.42 0.42 0.42 0.42 0.41 0.40 0.40 0.39 0.39 0.40 0.38 0.38 0.37 0.38 0.27 0.16 0.27 0.34 0.42 0.44 0.47 0.52 0.56 0.46 0.43 0.42 0.38 0.35 0.33 0.33 0.29 0.28 0.27 0.24 0.20 0.17 0.20 0.19 0.16 0.23 0.18 0.24 0.16 0.14 0.17 0.18 0.12 0.18 0.17 0.19 0.18 0.18 0.17 0.18 0.18 0.19 0.20 0.21 0.22 0.23 0.23 0.21 0.24 0.41 0.66 0.84 0.97 0.98 0.97 1.06 1.09 1.07
0.49 0.47 0.47 0.47 0.46 0.46 0.44 0.43 0.43 0.42 0.41 0.41 0.41 0.40 0.40 0.41 0.41 0.40 0.41 0.41 0.41 0.40 0.39 0.38 0.38 0.36 0.37 0.37 0.34 0.33 0.22 0.09 0.32 0.34 0.45 0.50 0.54 0.57 0.53 0.48 0.44 0.44 0.34 0.31 0.29 0.28 0.26 0.25 0.22 0.18 0.16 0.17 0.17 0.15 0.17 0.21 0.19 0.14 0.17 0.15 0.17 0.20 0.16 0.19 0.19 0.18 0.18 0.17 0.17 0.17 0.20 0.19 0.18 0.19 0.22 0.23 0.23 0.24 0.29 0.41 0.62 0.91 0.95 1.04 1.09 1.07 1.02 1.00
0.48 0.47 0.46 0.46 0.46 0.45 0.44 0.44 0.43 0.42 0.41 0.41 0.40 0.40 0.38 0.38 0.39 0.40 0.40 0.40 0.40 0.40 0.39 0.38 0.37 0.37 0.36 0.33 0.36 0.26 0.17 0.12 0.17 0.34 0.48 0.49 0.48 0.52 0.49 0.46 0.48 0.37 0.34 0.30 0.28 0.25 0.25 0.22 0.20 0.16 0.15 0.15 0.17 0.16 0.20 0.18 0.20 0.15 0.14 0.20 0.19 0.19 0.17 0.19 0.18 0.19 0.19 0.19 0.18 0.20 0.19 0.17 0.18 0.17 0.22 0.22 0.24 0.30 0.35 0.40 0.70 0.88 0.94 1.03 1.02 1.03 1.02 0.99
0.47 0.47 0.46 0.45 0.46 0.46 0.45 0.43 0.43 0.42 0.41 0.41 0.40 0.40 0.39 0.38 0.38 0.38 0.39 0.39 0.40 0.39 0.39 0.38 0.37 0.36 0.35 0.29 0.27 0.22 0.15 0.14 0.23 0.48 0.48 0.50 0.52 0.48 0.46 0.44 0.40 0.33 0.31 0.28 0.26 0.23 0.23 0.20 0.17 0.17 0.14 0.13 0.17 0.15 0.21 0.16 0.18 0.15 0.13 0.16 0.17 0.18 0.19 0.20 0.19 0.19 0.20 0.19 0.20 0.19 0.15 0.16 0.18 0.19 0.21 0.22 0.30 0.35 0.56 0.65 0.81 0.84 0.90 0.97 1.00 0.99 1.00 0.96
0.47 0.47 0.45 0.45 0.45 0.45 0.45 0.44 0.43 0.43 0.42 0.42 0.42 0.41 0.41 0.39 0.39 0.39 0.39 0.40 0.39 0.39 0.39 0.38 0.36 0.36 0.36 0.28 0.20 0.12 0.12 0.21 0.31 0.48 0.53 0.51 0.48 0.49 0.48 0.38 0.39 0.32 0.31 0.30 0.28 0.26 0.21 0.19 0.18 0.17 0.14 0.13 0.18 0.15 0.20 0.16 0.16 0.15 0.16 0.17 0.18 0.17 0.18 0.19 0.20 0.19 0.18 0.18 0.19 0.15 0.14 0.17 0.19 0.20 0.20 0.21 0.41 0.55 0.64 0.76 0.77 0.80 0.83 0.89 0.94 0.99 0.96 0.94
0.47 0.47 0.47 0.46 0.46 0.46 0.45 0.45 0.44 0.43 0.42 0.42 0.42 0.41 0.41 0.40 0.40 0.40 0.40 0.40 0.41 0.40 0.40 0.39 0.38 0.35 0.29 0.25 0.19 0.12 0.16 0.25 0.37 0.48 0.50 0.47 0.42 0.41 0.42 0.40 0.37 0.34 0.31 0.30 0.28 0.26 0.22 0.21 0.19 0.19 0.19 0.16 0.19 0.16 0.21 0.17 0.20 0.23 0.19 0.18 0.18 0.20 0.21 0.22 0.19 0.17 0.18 0.17 0.16 0.13 0.13 0.16 0.19 0.18 0.18 0.40 0.53 0.57 0.67 0.69 0.75 0.78 0.82 0.93 0.94 0.96 0.97 0.94
0.47 0.47 0.47 0.46 0.45 0.45 0.45 0.44 0.44 0.43 0.41 0.42 0.42 0.41 0.41 0.40 0.40 0.40 0.40 0.39 0.40 0.40 0.41 0.40 0.40 0.33 0.28 0.18 0.12 0.10 0.20 0.25 0.36 0.41 0.46 0.43 0.40 0.37 0.37 0.38 0.39 0.35 0.34 0.32 0.30 0.28 0.26 0.23 0.22 0.21 0.18 0.17 0.17 0.21 0.20 0.19 0.21 0.19 0.18 0.19 0.18 0.18 0.18 0.19 0.18 0.16 0.16 0.15 0.16 0.15 0.14 0.16 0.17 0.17 0.18 0.49 0.49 0.60 0.65 0.68 0.68 0.77 0.89 0.92 0.93 0.92 0.94 0.93
0.47 0.47 0.47 0.46 0.45 0.44 0.43 0.43 0.42 0.42 0.41 0.41 0.41 0.41 0.41 0.40 0.39 0.38 0.38 0.39 0.38 0.40 0.39 0.37 0.39 0.35 0.24 0.18 0.13 0.12 0.17 0.27 0.36 0.41 0.41 0.41 0.38 0.41 0.41 0.42 0.40 0.40 0.36 0.31 0.31 0.29 0.27 0.26 0.24 0.20 0.19 0.22 0.16 0.23 0.18 0.24 0.20 0.20 0.19 0.15 0.16 0.17 0.15 0.17 0.16 0.17 0.17 0.15 0.16 0.16 0.13 0.12 0.13 0.13 0.23 0.36 0.43 0.55 0.64 0.69 0.72 0.73 0.86 0.89 0.88 0.88 0.87 0.90
0.47 0.47 0.47 0.46 0.45 0.44 0.43 0.43 0.42 0.41 0.41 0.41 0.41 0.41 0.40 0.39 0.38 0.37 0.38 0.38 0.40 0.39 0.40 0.40 0.33 0.32 0.24 0.14 0.15 0.19 0.21 0.36 0.42 0.38 0.36 0.41 0.41 0.42 0.40 0.43 0.44 0.44 0.41 0.37 0.34 0.32 0.28 0.25 0.25 0.21 0.25 0.22 0.21 0.18 0.26 0.24 0.22 0.21 0.20 0.17 0.16 0.15 0.14 0.17 0.17 0.16 0.15 0.15 0.16 0.15 0.08 0.10 0.12 0.14 0.28 0.37 0.43 0.57 0.65 0.69 0.74 0.73 0.81 0.80 0.82 0.81 0.84 0.86
0.47 0.47 0.47 0.46 0.44 0.44 0.43 0.43 0.42 0.42 0.40 0.40 0.42 0.40 0.39 0.38 0.37 0.38 0.40 0.40 0.43 0.41 0.39 0.37 0.40 0.28 0.24 0.14 0.13 0.16 0.22 0.28 0.38 0.30 0.31 0.35 0.33 0.34 0.37 0.38 0.42 0.46 0.46 0.41 0.36 0.36 0.29 0.26 0.25 0.25 0.30 0.25 0.24 0.29 0.24 0.23 0.23 0.17 0.21 0.18 0.14 0.14 0.14 0.17 0.16 0.17 0.15 0.17 0.16 0.15 0.09 0.12 0.16 0.15 0.23 0.40 0.48 0.52 0.59 0.71 0.71 0.71 0.76 0.75 0.76 0.78 0.81 0.84
0.48 0.48 0.47 0.46 0.44 0.43 0.43 0.43 0.42 0.42 0.41 0.40 0.41 0.40 0.39 0.37 0.41 0.43 0.43 0.44 0.45 0.44 0.40 0.44 0.38 0.29 0.19 0.17 0.18 0.25 0.24 0.22 0.18 0.18 0.29 0.27 0.27 0.31 0.32 0.37 0.38 0.45 0.47 0.44 0.38 0.37 0.33 0.26 0.25 0.23 0.20 0.29 0.29 0.23 0.20 0.20 0.21 0.20 0.15 0.14 0.16 0.13 0.16 0.17 0.17 0.16 0.15 0.17 0.17 0.14 0.10 0.11 0.15 0.19 0.27 0.39 0.52 0.51 0.56 0.67 0.72 0.67 0.70 0.74 0.74 0.76 0.79 0.82
0.47 0.47 0.47 0.45 0.44 0.43 0.43 0.42 0.42 0.41 0.40 0.40 0.40 0.39 0.39 0.42 0.45 0.45 0.45 0.44 0.42 0.43 0.45 0.34 0.32 0.27 0.16 0.12 0.26 0.44 0.33 0.24 0.26 0.28 0.25 0.26 0.26 0.27 0.32 0.34 0.40 0.45 0.46 0.42 0.37 0.33 0.31 0.26 0.22 0.22 0.24 0.25 0.23 0.20 0.20 0.19 0.19 0.19 0.16 0.17 0.16 0.15 0.16 0.15 0.17 0.17 0.17 0.16 0.17 0.14 0.12 0.15 0.15 0.18 0.27 0.39 0.48 0.51 0.57 0.62 0.69 0.70 0.66 0.74 0.74 0.75 0.79 0.82
0.47 0.46 0.46 0.44 0.43 0.43 0.42 0.42 0.42 0.41 0.41 0.41 0.40 0.40 0.41 0.48 0.49 0.47 0.48 0.46 0.45 0.45 0.41 0.27 0.34 0.33 0.14 0.26 0.33 0.22 0.24 0.31 0.40 0.43 0.37 0.31 0.27 0.30 0.36 0.36 0.36 0.41 0.45 0.43 0.36 0.30 0.27 0.22 0.25 0.24 0.25 0.22 0.22 0.21 0.17 0.16 0.17 0.17 0.17 0.15 0.17 0.15 0.16 0.14 0.18 0.18 0.18 0.16 0.16 0.17 0.13 0.15 0.17 0.19 0.34 0.37 0.44 0.45 0.52 0.60 0.69 0.70 0.75 0.72 0.77 0.75 0.78 0.81
0.47 0.46 0.45 0.44 0.43 0.43 0.44 0.43 0.42 0.41 0.42 0.41 0.39 0.38 0.43 0.48 0.50 0.48 0.45 0.47 0.48 0.42 0.41 0.43 0.35 0.25 0.16 0.21 0.13 0.18 0.29 0.32 0.36 0.40 0.40 0.40 0.34 0.32 0.34 0.32 0.38 0.40 0.40 0.35 0.35 0.26 0.24 0.19 0.20 0.17 0.19 0.20 0.21 0.20 0.15 0.13 0.17 0.19 0.17 0.15 0.15 0.16 0.15 0.15 0.15 0.18 0.16 0.17 0.15 0.17 0.15 0.15 0.16 0.17 0.23 0.39 0.40 0.44 0.47 0.58 0.68 0.71 0.79 0.75 0.77 0.77 0.78 0.82
0.47 0.46 0.46 0.44 0.44 0.44 0.44 0.44 0.42 0.42 0.41 0.40 0.38 0.46 0.51 0.51 0.51 0.48 0.40 0.40 0.32 0.26 0.19 0.25 0.20 0.10 0.10 0.21 0.22 0.20 0.31 0.37 0.38 0.36 0.36 0.38 0.39 0.35 0.34 0.36 0.37 0.34 0.29 0.27 0.27 0.25 0.23 0.22 0.18 0.17 0.16 0.17 0.17 0.17 0.16 0.18 0.19 0.19 0.19 0.17 0.17 0.16 0.17 0.16 0.16 0.18 0.17 0.15 0.15 0.15 0.15 0.16 0.17 0.18 0.23 0.28 0.38 0.39 0.46 0.53 0.60 0.65 0.72 0.71 0.72 0.75 0.77 0.81
0.47 0.46 0.45 0.44 0.44 0.44 0.44 0.44 0.42 0.42 0.41 0.36 0.35 0.38 0.39 0.32 0.30 0.29 0.35 0.34 0.25 0.19 0.20 0.24 0.23 0.19 0.18 0.18 0.21 0.30 0.32 0.36 0.28 0.34 0.41 0.44 0.39 0.34 0.29 0.31 0.32 0.33 0.30 0.23 0.26 0.26 0.25 0.18 0.14 0.13 0.15 0.17 0.19 0.20 0.20 0.23 0.21 0.20 0.17 0.16 0.16 0.16 0.16 0.19 0.18 0.18 0.18 0.15 0.13 0.14 0.15 0.16 0.17 0.19 0.26 0.24 0.27 0.35 0.40 0.45 0.49 0.52 0.61 0.66 0.68 0.72 0.74 0.80
0.47 0.46 0.46 0.45 0.44 0.44 0.44 0.43 0.42 0.41 0.40 0.36 0.32 0.25 0.20 0.20 0.13 0.17 0.23 0.22 0.26 0.28 0.23 0.21 0.23 0.21 0.19 0.27 0.25 0.22 0.21 0.25 0.28 0.30 0.37 0.49 0.42 0.34 0.26 0.26 0.26 0.24 0.27 0.29 0.29 0.31 0.24 0.18 0.16 0.16 0.17 0.19 0.21 0.23 0.24 0.24 0.23 0.19 0.18 0.17 0.16 0.16 0.16 0.19 0.18 0.19 0.20 0.15 0.13 0.15 0.15 0.16 0.17 0.19 0.24 0.27 0.23 0.24 0.32 0.39 0.46 0.50 0.52 0.59 0.62 0.67 0.73 0.81
0.47 0.47 0.46 0.45 0.45 0.44 0.44 0.43 0.42 0.40 0.39 0.35 0.28 0.21 0.21 0.25 0.29 0.31 0.26 0.16 0.26 0.26 0.24 0.24 0.25 0.23 0.27 0.27 0.29 0.27 0.23 0.17 0.19 0.26 0.41 0.43 0.40 0.27 0.29 0.21 0.21 0.20 0.29 0.31 0.29 0.24 0.19 0.16 0.18 0.20 0.24 0.25 0.25 0.24 0.24 0.23 0.21 0.20 0.18 0.18 0.17 0.17 0.18 0.21 0.19 0.18 0.19 0.16 0.13 0.14 0.14 0.16 0.17 0.19 0.24 0.27 0.24 0.25 0.27 0.35 0.44 0.48 0.53 0.54 0.58 0.60 0.66 0.78
0.47 0.47 0.47 0.46 0.45 0.44 0.42 0.42 0.40 0.40 0.37 0.31 0.26 0.22 0.25 0.36 0.40 0.43 0.36 0.25 0.20 0.28 0.24 0.25 0.23 0.22 0.23 0.29 0.29 0.31 0.20 0.17 0.14 0.19 0.30 0.38 0.37 0.31 0.32 0.20 0.20 0.23 0.32 0.28 0.20 0.19 0.17 0.18 0.20 0.25 0.27 0.23 0.21 0.23 0.24 0.23 0.23 0.21 0.20 0.17 0.16 0.19 0.18 0.16 0.23 0.20 0.20 0.16 0.17 0.20 0.18 0.18 0.19 0.21 0.23 0.26 0.25 0.28 0.29 0.32 0.40 0.49 0.52 0.56 0.58 0.62 0.66 0.72
0.47 0.47 0.46 0.45 0.44 0.42 0.41 0.39 0.38 0.41 0.34 0.27 0.22 0.25 0.36 0.41 0.41 0.42 0.32 0.21 0.17 0.22 0.25 0.28 0.27 0.26 0.27 0.25 0.34 0.28 0.19 0.17 0.17 0.15 0.28 0.31 0.31 0.34 0.32 0.22 0.21 0.23 0.27 0.25 0.22 0.21 0.20 0.26 0.27 0.27 0.25 0.21 0.21 0.22 0.21 0.21 0.19 0.21 0.20 0.19 0.19 0.19 0.20 0.17 0.18 0.23 0.21 0.17 0.17 0.16 0.14 0.13 0.15 0.16 0.18 0.24 0.29 0.29 0.31 0.32 0.39 0.48 0.54 0.59 0.63 0.67 0.70 0.72
0.46 0.46 0.45 0.44 0.42 0.42 0.38 0.37 0.31 0.32 0.32 0.25 0.22 0.34 0.41 0.43 0.43 0.44 0.30 0.25 0.24 0.22 0.35 0.33 0.33 0.29 0.32 0.40 0.37 0.27 0.26 0.24 0.20 0.18 0.24 0.24 0.29 0.31 0.28 0.29 0.24 0.22 0.25 0.26 0.26 0.24 0.25 0.29 0.28 0.24 0.22 0.21 0.22 0.22 0.21 0.21 0.18 0.20 0.23 0.22 0.21 0.21 0.20 0.18 0.17 0.16 0.15 0.15 0.18 0.16 0.12 0.12 0.15 0.17 0.18 0.23 0.35 0.27 0.32 0.31 0.31 0.35 0.45 0.55 0.60 0.63 0.72 0.80
0.45 0.45 0.44 0.42 0.41 0.38 0.37 0.30 0.31 0.32 0.25 0.23 0.30 0.37 0.43 0.43 0.48 0.44 0.32 0.18 0.14 0.23 0.30 0.25 0.35 0.27 0.35 0.31 0.34 0.32 0.29 0.20 0.24 0.22 0.24 0.19 0.30 0.28 0.32 0.29 0.26 0.23 0.25 0.26 0.26 0.27 0.29 0.33 0.28 0.24 0.22 0.21 0.21 0.21 0.24 0.22 0.19 0.18 0.22 0.27 0.23 0.19 0.18 0.17 0.16 0.16 0.12 0.10 0.23 0.22 0.12 0.12 0.18 0.21 0.23 0.24 0.27 0.29 0.41 0.38 0.37 0.36 0.38 0.46 0.57 0.65 0.71 0.77
0.45 0.43 0.42 0.41 0.40 0.38 0.27 0.24 0.36 0.29 0.21 0.24 0.38 0.42 0.42 0.42 0.52 0.44 0.24 0.17 0.12 0.25 0.24 0.31 0.30 0.27 0.33 0.28 0.34 0.33 0.16 0.18 0.26 0.24 0.22 0.20 0.22 0.32 0.28 0.28 0.29 0.30 0.32 0.32 0.27 0.24 0.28 0.28 0.28 0.27 0.24 0.22 0.21 0.19 0.22 0.22 0.19 0.18 0.25 0.24 0.21 0.18 0.17 0.17 0.17 0.16 0.13 0.20 0.25 0.23 0.18 0.13 0.13 0.18 0.22 0.27 0.30 0.32 0.40 0.43 0.43 0.41 0.39 0.45 0.58 0.65 0.71 0.77
0.43 0.43 0.41 0.40 0.40 0.38 0.29 0.30 0.26 0.22 0.22 0.35 0.40 0.40 0.44 0.43 0.45 0.45 0.23 0.09 0.09 0.25 0.23 0.27 0.30 0.35 0.29 0.26 0.35 0.27 0.25 0.23 0.18 0.22 0.21 0.22 0.25 0.30 0.24 0.28 0.26 0.25 0.28 0.28 0.18 0.28 0.27 0.25 0.26 0.25 0.24 0.23 0.22 0.23 0.26 0.24 0.19 0.21 0.25 0.22 0.20 0.20 0.19 0.18 0.17 0.16 0.16 0.18 0.15 0.19 0.20 0.14 0.12 0.16 0.28 0.31 0.26 0.37 0.40 0.42 0.45 0.45 0.46 0.49 0.57 0.68 0.74 0.81
0.42 0.41 0.40 0.40 0.38 0.37 0.38 0.32 0.28 0.22 0.28 0.35 0.37 0.40 0.42 0.47 0.39 0.25 0.18 0.09 0.23 0.22 0.35 0.25 0.37 0.31 0.23 0.31 0.30 0.31 0.26 0.26 0.22 0.28 0.24 0.25 0.23 0.29 0.19 0.24 0.28 0.30 0.32 0.29 0.22 0.30 0.30 0.29 0.30 0.28 0.26 0.23 0.24 0.26 0.28 0.27 0.20 0.24 0.24 0.23 0.22 0.22 0.21 0.20 0.18 0.18 0.20 0.17 0.12 0.17 0.23 0.13 0.12 0.18 0.24 0.33 0.34 0.40 0.45 0.48 0.49 0.50 0.55 0.58 0.61 0.69 0.78 0.84
0.40 0.40 0.40 0.39 0.36 0.35 0.35 0.36 0.28 0.33 0.33 0.34 0.36 0.40 0.42 0.34 0.27 0.14 0.09 0.06 0.23 0.17 0.24 0.27 0.25 0.23 0.21 0.18 0.21 0.29 0.25 0.25 0.26 0.30 0.25 0.17 0.19 0.26 0.28 0.30 0.27 0.30 0.30 0.32 0.29 0.30 0.31 0.33 0.34 0.31 0.27 0.27 0.28 0.29 0.28 0.28 0.26 0.29 0.24 0.21 0.22 0.21 0.21 0.21 0.22 0.21 0.21 0.15 0.14 0.19 0.25 0.16 0.11 0.16 0.26 0.37 0.44 0.45 0.46 0.50 0.53 0.54 0.57 0.65 0.71 0.74 0.77 0.81
0.40 0.40 0.39 0.40 0.30 0.34 0.33 0.26 0.33 0.35 0.35 0.36 0.35 0.38 0.34 0.28 0.16 0.11 0.07 0.12 0.18 0.20 0.23 0.22 0.19 0.22 0.18 0.17 0.19 0.25 0.26 0.25 0.23 0.26 0.21 0.20 0.18 0.19 0.22 0.22 0.31 0.29 0.29 0.30 0.29 0.30 0.29 0.28 0.28 0.30 0.33 0.32 0.32 0.31 0.31 0.31 0.29 0.25 0.22 0.21 0.22 0.21 0.22 0.21 0.21 0.22 0.15 0.13 0.18 0.22 0.23 0.20 0.11 0.16 0.39 0.48 0.55 0.53 0.51 0.49 0.49 0.52 0.62 0.66 0.72 0.75 0.78 0.83
0.39 0.39 0.40 0.37 0.38 0.42 0.29 0.30 0.37 0.42 0.38 0.38 0.33 0.26 0.23 0.12 0.12 0.07 0.07 0.18 0.10 0.17 0.16 0.17 0.19 0.19 0.17 0.16 0.19 0.22 0.23 0.25 0.24 0.23 0.21 0.16 0.16 0.15 0.17 0.17 0.21 0.20 0.21 0.24 0.24 0.28 0.25 0.25 0.28 0.29 0.33 0.30 0.28 0.25 0.25 0.25 0.25 0.22 0.21 0.21 0.17 0.17 0.17 0.15 0.19 0.15 0.13 0.13 0.23 0.24 0.22 0.17 0.16 0.29 0.39 0.52 0.55 0.56 0.58 0.55 0.54 0.54 0.63 0.64 0.68 0.72 0.78 0.81
0.39 0.38 0.39 0.40 0.42 0.38 0.38 0.42 0.46 0.44 0.42 0.36 0.25 0.22 0.13 0.10 0.06 0.08 0.09 0.12 0.11 0.18 0.17 0.17 0.16 0.16 0.15 0.16 0.18 0.22 0.28 0.23 0.25 0.22 0.24 0.21 0.17 0.15 0.18 0.19 0.24 0.21 0.17 0.23 0.21 0.24 0.23 0.27 0.28 0.28 0.30 0.31 0.28 0.21 0.20 0.18 0.20 0.20 0.19 0.19 0.16 0.15 0.17 0.14 0.15 0.16 0.15 0.18 0.25 0.23 0.23 0.16 0.21 0.39 0.43 0.45 0.55 0.62 0.63 0.61 0.62 0.61 0.64 0.63 0.65 0.72 0.76 0.80
0.38 0.39 0.37 0.43 0.44 0.45 0.46 0.49 0.46 0.44 0.32 0.30 0.21 0.14 0.14 0.07 0.06 0.14 0.10 0.09 0.11 0.15 0.15 0.14 0.13 0.13 0.14 0.14 0.17 0.21 0.24 0.27 0.26 0.23 0.22 0.22 0.19 0.17 0.17 0.19 0.24 0.23 0.22 0.27 0.20 0.22 0.17 0.20 0.24 0.26 0.23 0.29 0.27 0.24 0.24 0.21 0.21 0.20 0.21 0.20 0.19 0.18 0.17 0.15 0.14 0.14 0.15 0.15 0.25 0.27 0.16 0.15 0.16 0.31 0.46 0.54 0.62 0.67 0.69 0.68 0.68 0.69 0.69 0.69 0.71 0.71 0.72 0.75
0.37 0.40 0.44 0.47 0.48 0.50 0.48 0.46 0.45 0.40 0.35 0.22 0.16 0.11 0.07 0.05 0.08 0.07 0.08 0.09 0.10 0.09 0.08 0.10 0.09 0.09 0.11 0.15 0.17 0.21 0.25 0.27 0.28 0.25 0.21 0.20 0.19 0.20 0.19 0.19 0.21 0.25 0.25 0.19 0.24 0.25 0.20 0.20 0.27 0.30 0.27 0.29 0.24 0.26 0.28 0.26 0.25 0.24 0.23 0.23 0.21 0.20 0.22 0.17 0.22 0.20 0.20 0.20 0.22 0.21 0.16 0.24 0.31 0.52 0.59 0.64 0.64 0.68 0.69 0.68 0.71 0.69 0.72 0.72 0.71 0.70 0.71 0.73
0.37 0.44 0.52 0.46 0.48 0.51 0.46 0.42 0.41 0.38 0.28 0.20 0.12 0.09 0.07 0.09 0.09 0.08 0.12 0.13 0.14 0.10 0.09 0.08 0.08 0.06 0.09 0.11 0.16 0.18 0.27 0.25 0.33 0.26 0.23 0.21 0.22 0.19 0.23 0.23 0.22 0.21 0.22 0.17 0.23 0.16 0.20 0.19 0.26 0.29 0.29 0.27 0.26 0.27 0.26 0.28 0.18 0.24 0.23 0.19 0.21 0.27 0.25 0.23 0.22 0.25 0.21 0.18 0.17 0.25 0.20 0.24 0.39 0.46 0.54 0.61 0.60 0.63 0.66 0.69 0.74 0.74 0.72 0.74 0.71 0.72 0.74 0.76
0.39 0.48 0.47 0.52 0.51 0.57 0.52 0.40 0.37 0.33 0.25 0.18 0.11 0.08 0.10 0.10 0.09 0.10 0.13 0.12 0.12 0.11 0.12 0.07 0.09 0.06 0.10 0.13 0.15 0.17 0.22 0.26 0.32 0.27 0.23 0.24 0.22 0.23 0.23 0.23 0.26 0.24 0.23 0.21 0.24 0.25 0.21 0.20 0.27 0.24 0.22 0.26 0.29 0.28 0.28 0.28 0.27 0.30 0.21 0.22 0.27 0.29 0.28 0.25 0.18 0.21 0.17 0.15 0.19 0.23 0.19 0.26 0.24 0.27 0.46 0.51 0.55 0.57 0.58 0.68 0.72 0.75 0.78 0.77 0.79 0.81 0.82 0.83
0.42 0.48 0.53 0.51 0.53 0.62 0.63 0.55 0.39 0.25 0.18 0.14 0.10 0.12 0.13 0.08 0.13 0.15 0.18 0.17 0.19 0.17 0.12 0.10 0.10 0.08 0.09 0.10 0.15 0.17 0.20 0.21 0.28 0.28 0.24 0.28 0.25 0.28 0.25 0.24 0.27 0.25 0.23 0.25 0.25 0.30 0.25 0.20 0.27 0.26 0.25 0.26 0.28 0.27 0.26 0.28 0.29 0.26 0.27 0.33 0.24 0.21 0.18 0.24 0.21 0.17 0.17 0.15 0.17 0.21 0.22 0.24 0.29 0.28 0.43 0.46 0.50 0.53 0.58 0.64 0.69 0.72 0.74 0.79 0.82 0.85 0.88 0.90
0.48 0.47 0.40 0.51 0.60 0.63 0.63 0.64 0.51 0.28 0.16 0.10 0.10 0.09 0.13 0.13 0.18 0.18 0.24 0.22 0.22 0.20 0.15 0.14 0.10 0.12 0.09 0.09 0.15 0.17 0.19 0.19 0.24 0.27 0.26 0.30 0.24 0.35 0.29 0.29 0.28 0.27 0.27 0.28 0.25 0.33 0.31 0.21 0.24 0.30 0.26 0.27 0.25 0.24 0.21 0.23 0.27 0.29 0.31 0.29 0.31 0.30 0.26 0.23 0.21 0.21 0.19 0.17 0.16 0.18 0.22 0.20 0.34 0.45 0.49 0.47 0.52 0.57 0.58 0.63 0.66 0.70 0.74 0.79 0.81 0.84 0.88 0.89
0.43 0.39 0.41 0.59 0.63 0.66 0.66 0.60 0.45 0.35 0.22 0.13 0.14 0.12 0.22 0.21 0.24 0.27 0.28 0.26 0.24 0.19 0.19 0.16 0.16 0.12 0.13 0.12 0.13 0.16 0.20 0.19 0.20 0.24 0.29 0.40 0.28 0.42 0.38 0.35 0.38 0.33 0.33 0.33 0.30 0.33 0.30 0.30 0.23 0.29 0.30 0.27 0.21 0.23 0.23 0.27 0.25 0.24 0.24 0.24 0.28 0.26 0.34 0.32 0.32 0.23 0.21 0.17 0.18 0.17 0.17 0.24 0.39 0.50 0.50 0.51 0.55 0.60 0.61 0.61 0.67 0.71 0.75 0.78 0.81 0.84 0.87 0.91
0.48 0.43 0.43 0.63 0.63 0.67 0.63 0.47 0.35 0.27 0.23 0.26 0.22 0.23 0.23 0.23 0.29 0.29 0.31 0.31 0.27 0.29 0.23 0.21 0.19 0.16 0.17 0.14 0.14 0.18 0.19 0.20 0.20 0.22 0.27 0.34 0.33 0.32 0.41 0.43 0.40 0.40 0.38 0.35 0.32 0.34 0.29 0.29 0.23 0.27 0.26 0.22 0.24 0.34 0.35 0.34 0.33 0.29 0.26 0.24 0.27 0.26 0.24 0.19 0.20 0.26 0.24 0.20 0.19 0.18 0.17 0.32 0.45 0.51 0.55 0.56 0.61 0.62 0.66 0.66 0.66 0.74 0.77 0.80 0.84 0.87 0.89 0.91
0.38 0.29 0.39 0.64 0.65 0.64 0.48 0.33 0.27 0.28 0.25 0.23 0.25 0.27 0.26 0.31 0.26 0.28 0.29 0.31 0.27 0.27 0.32 0.23 0.23 0.19 0.18 0.18 0.18 0.18 0.19 0.20 0.21 0.23 0.29 0.32 0.42 0.42 0.49 0.50 0.46 0.45 0.39 0.33 0.32 0.36 0.34 0.33 0.26 0.24 0.26 0.26 0.32 0.37 0.38 0.37 0.35 0.35 0.34 0.29 0.30 0.30 0.29 0.23 0.18 0.24 0.23 0.22 0.26 0.25 0.21 0.31 0.53 0.55 0.58 0.61 0.63 0.66 0.70 0.71 0.71 0.77 0.81 0.86 0.89 0.90 0.91 0.92
0.35 0.42 0.59 0.62 0.64 0.56 0.39 0.27 0.26 0.25 0.25 0.29 0.30 0.30 0.31 0.28 0.27 0.29 0.26 0.29 0.25 0.28 0.27 0.24 0.23 0.20 0.22 0.20 0.21 0.18 0.20 0.21 0.23 0.23 0.33 0.35 0.40 0.44 0.50 0.53 0.53 0.48 0.45 0.44 0.40 0.44 0.38 0.30 0.26 0.27 0.30 0.34 0.36 0.38 0.40 0.40 0.38 0.31 0.31 0.34 0.33 0.29 0.29 0.28 0.26 0.31 0.25 0.25 0.20 0.21 0.19 0.29 0.51 0.60 0.62 0.63 0.66 0.70 0.73 0.75 0.75 0.79 0.83 0.87 0.88 0.89 0.91 0.92
0.41 0.45 0.44 0.59 0.62 0.53 0.36 0.22 0.22 0.24 0.27 0.31 0.29 0.28 0.31 0.29 0.28 0.27 0.26 0.29 0.27 0.28 0.26 0.26 0.25 0.24 0.23 0.24 0.23 0.20 0.24 0.18 0.25 0.26 0.31 0.37 0.38 0.46 0.48 0.51 0.53 0.50 0.46 0.46 0.40 0.46 0.31 0.30 0.28 0.25 0.24 0.27 0.31 0.32 0.32 0.38 0.36 0.37 0.36 0.35 0.33 0.33 0.32 0.32 0.32 0.30 0.25 0.26 0.24 0.22 0.18 0.30 0.51 0.63 0.62 0.64 0.65 0.65 0.70 0.76 0.79 0.78 0.83 0.85 0.87 0.89 0.90 0.92
0.44 0.48 0.49 0.48 0.55 0.50 0.33 0.31 0.27 0.24 0.25 0.26 0.25 0.25 0.27 0.28 0.31 0.31 0.30 0.29 0.30 0.29 0.27 0.26 0.25 0.26 0.23 0.27 0.24 0.24 0.25 0.22 0.25 0.31 0.35 0.39 0.38 0.44 0.47 0.50 0.55 0.56 0.57 0.60 0.53 0.54 0.36 0.34 0.30 0.23 0.20 0.18 0.19 0.19 0.21 0.25 0.28 0.36 0.35 0.35 0.33 0.32 0.31 0.28 0.22 0.26 0.20 0.26 0.25 0.22 0.24 0.37 0.53 0.58 0.57 0.60 0.62 0.63 0.68 0.73 0.77 0.80 0.81 0.82 0.84 0.86 0.87 0.89
0.33 0.24 0.34 0.38 0.44 0.43 0.35 0.38 0.34 0.29 0.26 0.27 0.24 0.26 0.29 0.26 0.29 0.32 0.32 0.30 0.31 0.30 0.29 0.28 0.25 0.25 0.24 0.24 0.23 0.23 0.23 0.26 0.23 0.32 0.33 0.38 0.39 0.42 0.45 0.50 0.50 0.50 0.54 0.56 0.55 0.51 0.40 0.42 0.38 0.34 0.29 0.24 0.25 0.27 0.35 0.35 0.36 0.27 0.31 0.34 0.34 0.34 0.35 0.33 0.32 0.26 0.23 0.28 0.24 0.24 0.30 0.34 0.40 0.49 0.52 0.56 0.59 0.59 0.62 0.68 0.71 0.74 0.78 0.81 0.82 0.83 0.85 0.85
0.42 0.28 0.28 0.24 0.34 0.36 0.34 0.33 0.31 0.30 0.26 0.30 0.23 0.29 0.25 0.27 0.28 0.29 0.34 0.28 0.31 0.28 0.29 0.26 0.25 0.24 0.24 0.23 0.24 0.25 0.25 0.24 0.27 0.28 0.32 0.33 0.39 0.42 0.47 0.47 0.49 0.51 0.55 0.54 0.56 0.51 0.42 0.37 0.38 0.36 0.36 0.35 0.37 0.36 0.37 0.35 0.32 0.35 0.32 0.33 0.35 0.35 0.36 0.32 0.27 0.28 0.36 0.30 0.23 0.37 0.35 0.31 0.37 0.45 0.50 0.52 0.57 0.61 0.64 0.67 0.70 0.73 0.76 0.78 0.78 0.80 0.81 0.81
0.28 0.32 0.34 0.40 0.29 0.24 0.23 0.25 0.30 0.28 0.29 0.33 0.26 0.31 0.26 0.26 0.26 0.25 0.30 0.31 0.32 0.33 0.27 0.29 0.27 0.26 0.26 0.25 0.26 0.22 0.26 0.25 0.27 0.26 0.32 0.34 0.36 0.40 0.41 0.47 0.48 0.50 0.53 0.53 0.58 0.51 0.40 0.35 0.41 0.39 0.35 0.38 0.39 0.38 0.39 0.38 0.37 0.36 0.36 0.36 0.35 0.36 0.36 0.33 0.32 0.34 0.38 0.29 0.26 0.38 0.41 0.35 0.42 0.48 0.51 0.54 0.57 0.59 0.64 0.67 0.71 0.75 0.76 0.76 0.75 0.74 0.74 0.74
0.41 0.36 0.35 0.38 0.25 0.29 0.32 0.31 0.31 0.29 0.28 0.30 0.27 0.28 0.26 0.26 0.25 0.28 0.28 0.30 0.29 0.30 0.28 0.23 0.25 0.25 0.26 0.28 0.28 0.26 0.25 0.22 0.25 0.30 0.30 0.30 0.33 0.36 0.37 0.41 0.49 0.50 0.49 0.47 0.50 0.53 0.45 0.39 0.42 0.43 0.39 0.40 0.40 0.40 0.40 0.37 0.37 0.37 0.37 0.37 0.39 0.39 0.37 0.37 0.35 0.37 0.36 0.38 0.38 0.42 0.43 0.41 0.45 0.48 0.53 0.56 0.61 0.64 0.64 0.70 0.71 0.71 0.72 0.72 0.71 0.71 0.70 0.71
0.31 0.29 0.27 0.31 0.31 0.27 0.29 0.30 0.29 0.28 0.25 0.27 0.24 0.26 0.26 0.27 0.27 0.29 0.31 0.29 0.25 0.28 0.31 0.27 0.26 0.27 0.27 0.27 0.28 0.26 0.27 0.28 0.29 0.26 0.32 0.30 0.31 0.34 0.34 0.36 0.38 0.48 0.48 0.44 0.45 0.50 0.45 0.38 0.43 0.44 0.39 0.39 0.41 0.44 0.44 0.41 0.39 0.35 0.39 0.40 0.40 0.40 0.40 0.40 0.40 0.41 0.41 0.39 0.43 0.41 0.38 0.38 0.49 0.56 0.57 0.62 0.63 0.65 0.66 0.65 0.64 0.69 0.72 0.71 0.69 0.69 0.71 0.71
0.42 0.40 0.37 0.26 0.22 0.25 0.27 0.28 0.27 0.25 0.23 0.25 0.24 0.26 0.27 0.27 0.29 0.30 0.30 0.32 0.28 0.27 0.28 0.27 0.27 0.29 0.29 0.28 0.29 0.28 0.29 0.30 0.31 0.32 0.33 0.33 0.28 0.35 0.31 0.37 0.39 0.36 0.40 0.44 0.46 0.45 0.48 0.40 0.44 0.42 0.36 0.36 0.42 0.42 0.44 0.44 0.41 0.38 0.38 0.39 0.40 0.39 0.36 0.39 0.37 0.43 0.40 0.37 0.40 0.39 0.35 0.36 0.47 0.56 0.58 0.60 0.60 0.59 0.60 0.62 0.64 0.66 0.68 0.68 0.67 0.68 0.70 0.73
0.45 0.43 0.38 0.32 0.20 0.22 0.23 0.24 0.24 0.24 0.21 0.25 0.27 0.26 0.25 0.26 0.28 0.29 0.27 0.31 0.30 0.30 0.29 0.29 0.30 0.29 0.29 0.29 0.29 0.29 0.31 0.31 0.32 0.34 0.35 0.37 0.38 0.36 0.36 0.36 0.38 0.36 0.39 0.43 0.47 0.45 0.47 0.42 0.41 0.38 0.32 0.35 0.43 0.44 0.43 0.45 0.40 0.33 0.35 0.39 0.42 0.43 0.44 0.45 0.46 0.48 0.49 0.48 0.39 0.35 0.36 0.46 0.50 0.56 0.54 0.55 0.57 0.60 0.61 0.62 0.61 0.64 0.66 0.67 0.67 0.69 0.72 0.75
Wind_Speed
18 18 18 17 17 17 17 17 17 17 17 17 17 17 17 18 18 18 18 18 18 18 18 18 17 17 17 17 18 18 18 18 18 18 18 16 15 16 16 16 17 17 16 16 16 16 16 16 15 15 15 15 15 15 15 15 15 15 14 15 15 15 14 13 14 14 14 14 14 15 15 15 15 13 13 13 13 13 13 14 14 14 14 13 12 11 13 13
17 17 17 17 17 17 17 17 17 17 17 17 17 17 17 17 17 17 18 18 18 18 17 17 17 17 17 17 17 17 17 18 18 17 16 15 15 16 17 16 17 17 17 17 17 17 16 16 16 16 16 15 15 15 15 15 15 16 14 15 16 14 13 13 14 14 15 15 15 16 15 16 15 14 13 13 13 13 13 14 15 15 14 13 12 12 13 13
17 17 17 17 17 17 16 16 16 16 16 16 16 16 16 17 17 17 17 17 17 17 17 17 17 17 17 17 17 17 17 17 17 16 15 15 16 16 17 17 17 17 17 17 17 17 17 17 17 17 16 16 16 15 16 15 16 16 15 16 15 14 14 14 15 15 15 16 16 16 16 16 15 14 14 13 14 13 12 13 15 17 15 14 14 14 13 13
17 17 17 17 16 16 16 16 16 16 16 16 16 16 16 17 17 17 17 17 17 17 17 17 17 17 16 16 16 16 17 17 16 14 14 15 16 17 17 17 17 17 17 17 17 17 16 16 17 17 16 16 16 16 16 15 15 15 16 16 14 13 15 14 14 15 16 16 17 17 16 16 15 14 15 14 13 12 11 12 15 16 16 15 15 15 15 14
17 16 16 16 16 16 16 16 16 16 16 16 16 16 16 16 17 17 17 17 17 17 17 17 17 16 16 16 16 16 16 16 14 14 15 16 16 16 17 17 17 17 16 16 16 16 16 16 16 17 17 16 16 16 17 16 16 15 16 17 15 14 15 14 15 16 17 17 17 17 17 16 15 15 15 14 14 13 12 13 14 15 16 16 16 16 16 15
17 17 17 16 16 16 16 16 16 16 16 16 16 16 16 16 16 17 17 17 17 17 16 16 16 16 16 16 16 16 16 15 14 15 16 16 16 15 15 16 16 16 16 16 16 16 16 16 16 17 17 16 16 16 16 17 17 16 16 17 17 17 17 16 17 18 17 18 18 17 17 16 16 16 15 14 15 15 14 14 15 15 16 17 17 16 16 15
17 17 17 16 16 16 16 16 16 16 16 16 16 16 16 16 16 16 16 17 16 16 16 16 16 16 16 16 16 16 17 16 14 15 15 14 14 13 14 15 16 16 16 16 16 16 16 17 17 16 16 16 16 16 16 16 17 17 16 16 17 17 18 18 18 18 18 18 18 18 17 17 17 16 15 15 15 14 14 14 15 15 15 16 16 16 16 15
18 17 17 17 16 16 16 16 16 16 16 16 16 16 16 16 16 16 16 16 16 16 16 16 16 16 16 15 16 17 17 16 14 14 14 14 13 13 13 14 15 15 16 16 16 17 16 17 17 16 16 15 15 16 15 16 17 18 18 16 17 17 17 18 18 18 18 18 18 18 18 18 17 16 16 17 14 13 13 13 14 15 15 15 16 16 15 15
18 17 17 17 17 17 17 16 16 16 16 16 16 16 16 16 16 16 16 16 16 16 16 16 16 16 16 15 16 17 16 14 14 14 13 13 13 13 13 14 15 15 16 16 16 17 17 17 17 16 16 15 15 16 15 16 15 17 18 17 17 17 17 17 18 18 18 18 17 18 19 18 16 15 16 15 13 12 13 13 13 14 15 16 16 15 15 15
18 18 17 17 17 17 17 17 17 16 16 16 16 16 16 16 17 16 17 17 17 17 16 16 16 16 16 16 16 16 14 14 14 13 13 13 14 14 14 14 15 15 16 16 16 17 17 16 16 15 15 15 15 15 16 16 14 14 17 17 18 18 17 17 17 18 18 18 18 18 19 18 16 16 15 13 12 13 13 13 13 14 15 16 15 15 15 15
18 18 18 17 17 17 17 17 17 17 17 17 17 17 17 17 17 17 17 17 17 17 17 16 16 15 16 16 17 17 15 15 15 14 14 14 14 14 14 15 15 16 16 16 17 17 16 16 16 15 15 15 15 15 16 16 15 15 16 16 17 18 17 17 17 17 17 17 17 18 19 19 17 18 17 13 13 14 15 14 14 14 15 15 15 15 15 14
19 18 18 18 18 18 17 17 17 17 17 17 17 17 17 18 18 18 18 18 18 18 17 17 16 16 16 16 18 17 16 16 16 16 15 15 15 14 15 15 16 16 16 16 17 17 17 16 16 17 14 14 14 14 15 15 15 16 16 16 16 17 17 17 16 16 16 16 16 17 18 19 19 20 17 14 14 15 16 15 14 15 15 15 15 15 14 14
19 19 18 18 18 18 18 18 18 18 18 18 18 18 18 18 19 19 19 19 19 18 18 17 17 17 17 17 17 16 16 16 16 16 16 17 16 15 15 16 16 17 17 16 16 16 17 16 17 17 15 15 15 13 13 14 15 15 15 16 15 15 16 15 15 15 15 15 15 16 17 16 18 19 17 15 16 16 16 16 15 15 15 15 15 15 15 14
19 19 18 18 18 18 18 18 18 18 18 18 18 19 19 19 20 19 20 20 19 19 18 17 17 17 17 17 17 17 17 17 17 17 17 17 17 17 17 17 17 17 17 16 16 16 17 16 17 17 17 17 15 14 14 14 15 14 14 15 15 15 13 12 13 14 14 13 14 16 16 15 14 15 15 16 17 17 16 16 15 16 16 15 15 16 15 14
19 19 19 18 18 18 18 18 18 18 19 19 19 19 20 20 20 19 19 19 19 19 18 18 18 17 18 19 18 17 17 17 18 19 19 19 19 19 18 18 17 17 17 17 16 16 17 17 17 17 17 17 16 16 16 15 15 14 14 14 14 14 12 12 13 14 13 12 14 16 16 16 15 13 14 16 18 18 18 17 16 16 17 16 15 16 15 15
19 19 19 18 18 18 18 18 19 19 19 20 20 20 20 20 19 19 18 18 18 18 18 18 18 18 18 17 17 17 17 17 18 18 19 20 20 19 18 18 18 17 17 17 17 16 17 18 18 17 17 17 17 17 16 16 16 15 16 15 13 14 13 12 13 14 14 13 14 16 16 15 14 13 14 16 18 18 18 18 18 18 18 17 16 16 15 15
19 19 19 19 19 19 19 19 19 20 20 20 20 20 20 20 19 18 18 18 18 18 18 18 17 18 18 17 17 17 17 16 16 16 17 18 20 19 18 18 18 18 17 17 17 16 17 18 17 17 18 18 17 17 17 17 17 16 16 15 14 14 14 13 12 13 14 15 15 16 17 16 15 14 15 16 18 18 19 19 20 19 19 18 17 17 16 15
19 19 19 19 19 19 19 19 20 20 20 21 21 20 20 19 19 18 18 18 18 18 18 18 17 18 18 17 18 17 16 16 16 16 17 17 18 19 18 18 17 18 18 17 18 17 17 18 18 18 19 19 18 18 18 17 16 16 15 15 15 15 16 15 14 13 14 16 16 17 18 18 18 16 16 16 18 18 19 19 20 21 20 19 18 18 17 16
18 18 19 19 19 19 19 20 20 20 21 21 20 19 19 19 19 19 19 18 18 18 17 17 18 17 16 15 16 17 17 17 17 17 17 17 17 18 18 18 18 18 18 17 18 18 17 17 18 19 19 20 20 20 20 17 15 15 15 15 15 15 15 15 15 14 15 17 18 18 18 17 17 17 16 17 18 19 19 19 20 21 21 20 20 19 18 17
18 18 19 19 19 19 19 20 20 20 20 20 19 19 18 18 18 18 18 19 20 20 19 18 19 20 18 17 16 17 17 18 18 17 17 17 17 17 17 18 19 19 19 17 17 17 18 18 19 20 20 21 22 22 21 18 16 16 16 16 16 16 16 15 15 16 16 17 18 19 19 19 18 17 16 17 18 19 20 21 21 21 22 22 21 21 20 19
18 18 19 19 19 19 19 20 20 20 20 19 18 18 17 17 17 16 16 18 20 20 21 20 20 21 21 19 17 17 17 18 19 18 17 17 18 18 18 19 19 19 19 18 16 16 18 19 20 20 20 20 20 21 21 19 18 18 17 17 17 17 16 15 16 16 16 17 18 19 20 20 19 19 18 17 19 20 21 22 22 22 22 22 22 22 21 20
18 18 19 19 19 19 19 20 20 19 19 18 18 17 16 16 16 16 16 17 18 19 20 20 20 20 21 21 20 20 20 20 21 20 18 18 20 19 18 20 20 19 18 18 16 16 19 20 21 20 19 19 19 20 21 20 19 18 17 17 17 16 16 15 16 16 16 16 17 18 19 20 20 20 19 19 20 20 21 22 23 23 23 23 22 22 22 21
18 18 18 19 19 19 19 19 19 18 17 17 17 17 16 15 16 16 16 16 17 18 19 19 19 19 20 20 20 21 22 22 22 22 21 20 21 20 19 20 21 19 18 19 18 18 18 19 20 19 18 19 19 20 20 19 19 18 17 17 16 15 15 15 14 15 16 16 17 17 18 19 19 20 20 20 20 20 20 22 23 24 24 23 23 22 22 22
18 18 18 18 18 18 18 18 17 17 16 17 17 16 15 16 15 15 16 16 16 16 16 16 17 17 17 17 18 20 21 21 22 22 22 22 21 20 20 20 21 20 19 20 21 20 18 16 16 18 19 20 19 19 19 18 18 19 19 18 17 16 15 15 15 15 16 18 18 18 18 19 19 20 20 19 19 19 20 21 22 23 24 24 23 23 22 22
17 17 17 17 16 16 16 16 15 15 16 16 16 15 15 15 15 15 15 15 15 14 15 15 14 15 15 15 16 18 19 20 21 22 22 24 22 20 20 20 20 20 20 21 21 21 19 15 15 17 18 19 19 19 19 19 18 19 19 20 19 18 18 18 18 17 17 17 17 17 17 16 17 18 18 17 17 19 19 20 22 23 24 24 24 23 23 22
16 16 15 15 15 15 15 14 13 14 15 15 14 14 14 14 14 14 14 14 14 13 13 14 14 13 14 14 14 15 16 17 19 21 21 23 23 20 19 19 19 20 20 20 19 19 18 15 16 17 16 18 19 19 19 19 18 18 17 17 18 19 19 19 17 16 15 14 13 15 16 14 13 14 15 16 17 18 18 19 21 22 24 24 24 24 23 23
15 15 15 14 14 14 13 13 13 14 14 13 13 14 14 14 14 13 13 14 13 13 13 14 13 12 12 13 14 14 14 13 15 19 21 22 23 22 20 19 19 19 18 17 17 18 18 17 17 17 16 17 18 18 18 19 19 17 14 15 17 17 18 17 16 16 15 13 12 14 15 15 14 14 14 15 16 16 17 18 19 21 23 24 24 24 24 23
14 14 14 14 14 13 13 13 13 13 13 12 13 13 13 13 13 13 13 13 12 12 13 13 13 13 12 12 14 15 14 13 14 16 20 22 22 21 21 20 19 19 18 18 17 16 17 19 18 19 18 18 18 17 16 17 18 16 14 14 15 15 15 16 15 15 14 14 14 16 15 15 15 14 13 14 15 14 14 16 18 20 22 23 25 24 23 23
14 13 13 13 13 13 13 13 13 13 12 12 12 13 12 12 12 12 13 13 11 11 12 12 13 13 12 12 14 16 15 14 13 13 17 21 22 20 20 20 20 19 19 20 18 15 15 17 17 19 19 18 18 18 17 18 18 15 14 14 14 13 14 14 14 14 13 14 15 15 15 15 14 13 12 12 12 11 11 12 14 16 19 21 23 23 23 23
13 13 12 12 12 11 11 12 13 13 12 12 12 12 12 11 11 12 12 12 11 10 11 12 12 13 12 12 13 14 15 15 13 12 15 18 21 21 18 18 19 19 18 20 20 15 13 14 15 17 18 17 17 17 17 18 17 14 14 14 13 12 13 13 13 13 13 14 15 14 14 15 13 11 9 9 9 9 10 10 10 12 15 16 19 21 21 22
12 12 12 11 11 10 10 10 11 11 11 12 11 11 11 11 11 12 11 10 11 11 11 12 12 12 12 11 11 12 13 14 13 13 14 16 19 20 18 17 18 18 17 19 20 17 16 16 15 16 16 15 15 15 16 17 16 15 14 13 12 12 12 13 13 13 13 13 12 12 13 15 14 10 7 7 8 8 8 8 8 10 12 13 16 18 20 20
11 11 11 12 11 11 11 10 9 10 11 11 11 11 11 11 11 12 10 10 11 10 10 11 11 12 12 12 12 12 11 12 14 14 14 16 18 19 19 18 17 18 18 18 18 18 18 18 16 16 16 16 16 14 14 15 16 15 15 14 13 12 12 13 13 12 13 12 9 9 11 13 14 10 8 8 7 7 7 8 9 9 10 12 14 17 18 19
11 11 11 12 11 11 12 11 11 11 11 11 11 11 11 11 11 11 11 10 10 9 10 11 12 12 13 12 11 11 11 11 14 15 15 15 17 18 20 20 19 19 18 17 18 17 16 18 19 18 17 17 18 15 14 15 16 16 16 15 15 13 12 13 13 12 13 11 9 9 11 13 12 10 8 8 7 6 6 7 9 9 10 11 13 15 16 17
11 11 11 11 11 11 12 11 11 11 10 11 11 10 11 11 10 9 10 10 10 10 11 11 12 13 13 13 10 10 11 11 12 15 15 15 16 17 19 20 21 20 17 17 18 17 17 16 17 19 17 18 20 18 15 14 15 17 17 16 15 14 13 12 11 11 12 10 9 9 10 11 12 9 8 8 7 6 6 6 8 9 10 11 12 13 14 15
10 10 10 10 9 10 11 11 10 10 10 10 11 11 11 11 9 9 10 10 10 11 12 12 12 13 13 13 11 10 10 10 12 14 15 15 16 16 17 18 21 21 18 17 16 16 18 15 14 17 16 17 19 20 18 15 14 16 16 16 16 15 14 11 9 8 9 9 9 10 10 9 9 9 8 8 8 7 6 6 7 8 9 10 11 12 13 14
9 9 9 9 8 8 8 10 10 10 10 10 11 11 11 10 9 9 9 9 10 10 11 12 12 12 12 12 12 11 10 11 12 13 14 15 16 17 17 17 20 22 20 17 15 15 17 15 14 15 15 17 18 18 20 18 14 13 15 16 15 14 14 12 10 8 9 11 9 9 10 9 9 10 9 9 8 7 7 6 7 8 9 10 11 12 13 13
9 8 8 7 7 6 7 8 8 9 9 10 11 11 10 10 9 9 9 10 10 10 11 11 10 10 11 11 11 10 10 11 12 13 14 14 14 16 17 16 18 22 21 19 16 15 15 13 13 15 16 17 16 16 19 20 16 13 14 14 14 13 14 13 11 10 10 12 10 9 11 11 10 10 10 10 9 9 9 8 8 8 9 9 10 11 12 12
9 8 8 7 6 6 7 7 8 8 9 9 11 10 10 10 10 10 10 10 10 10 11 11 10 10 11 11 11 10 10 11 12 13 14 14 13 13 16 16 17 20 22 20 16 15 15 14 12 13 15 16 16 16 17 19 19 16 12 12 13 13 14 14 12 11 10 11 10 10 11 11 11 11 11 11 10 10 11 10 9 9 9 9 9 11 11 11
9 9 8 7 7 7 7 7 7 8 9 9 10 10 10 9 10 10 10 10 10 10 10 10 10 11 11 12 11 10 11 11 11 12 13 14 13 12 13 14 16 18 20 20 17 15 15 15 12 12 13 15 16 18 17 17 18 18 15 13 13 13 13 13 13 12 11 11 10 10 10 9 8 9 9 10 10 10 11 11 10 10 10 10 10 11 11 11
9 9 8 7 8 8 7 7 8 8 9 9 9 9 9 9 10 10 10 10 10 10 10 10 11 11 11 12 12 11 11 12 12 13 13 14 13 12 12 13 14 16 18 19 19 16 15 15 14 12 13 15 16 17 17 16 16 17 17 16 15 14 13 12 12 12 11 10 9 10 10 8 6 7 8 9 10 11 11 11 11 10 10 10 10 11 11 11
9 8 7 8 8 8 7 8 8 8 8 9 9 9 9 10 10 11 11 11 11 11 11 11 12 12 12 12 12 12 12 12 13 13 14 14 14 13 12 13 14 15 16 18 19 17 16 16 16 14 13 15 15 14 15 15 15 15 16 16 16 15 15 13 13 13 12 11 9 10 9 6 6 7 8 9 10 10 11 11 11 11 11 10 10 10 10 10
9 8 7 8 8 8 8 8 7 7 8 8 8 9 9 10 10 10 11 11 11 11 11 12 13 13 13 13 13 13 13 13 13 13 14 14 13 13 12 12 14 14 15 16 17 17 16 16 17 16 15 13 13 13 14 14 15 16 15 15 16 16 16 15 13 11 12 12 11 11 10 7 6 7 7 8 8 8 10 11 11 11 11 10 10 9 9 9
9 7 7 8 8 7 8 7 7 7 8 7 8 9 9 10 10 9 9 10 11 11 11 12 12 12 13 13 13 13 13 14 13 13 14 13 13 13 13 13 14 15 15 15 16 16 16 16 17 17 16 14 14 15 14 14 15 17 16 15 15 15 15 15 13 10 11 12 11 12 11 8 7 7 6 7 7 7 8 9 10 10 10 9 9 9 8 8
8 7 7 7 7 7 7 7 7 7 6 7 8 8 8 8 9 9 9 9 9 10 10 11 11 12 12 12 13 14 14 14 14 12 13 14 13 13 13 13 15 16 16 15 14 16 17 18 18 17 16 16 16 16 16 16 16 16 15 15 15 15 15 15 14 12 13 13 12 12 10 8 8 8 7 7 7 6 6 7 8 9 8 8 8 8 8 8
8 7 6 6 6 6 6 6 6 6 5 6 6 6 6 7 7 8 8 8 8 9 10 10 10 12 13 13 14 14 14 15 15 13 13 14 13 12 12 12 14 15 15 14 15 16 17 17 18 18 17 18 18 17 17 17 17 16 15 14 14 15 15 15 15 15 14 13 13 13 9 7 9 9 8 8 8 7 6 6 7 8 8 8 8 7 7 7
8 7 6 6 6 6 5 5 6 5 5 5 5 5 5 6 6 7 7 7 7 8 9 9 10 11 12 13 14 14 14 15 16 15 14 14 13 13 13 13 13 12 13 14 15 17 18 17 18 18 17 16 16 15 15 16 16 16 16 15 14 14 15 15 15 15 15 13 13 13 10 9 10 9 9 9 8 8 7 7 7 8 8 8 8 7 7 7
7 6 6 6 5 5 5 5 5 4 4 5 4 4 5 5 5 6 7 7 6 7 8 8 8 9 10 12 13 14 14 15 16 16 15 14 14 14 14 14 13 11 13 15 15 16 18 19 19 18 17 15 13 13 14 15 16 16 16 15 14 14 15 16 15 14 14 14 13 12 11 11 10 10 10 9 9 9 8 7 7 8 8 8 7 7 6 6
6 6 6 5 5 5 5 4 4 4 4 4 4 4 4 4 4 5 6 6 6 6 7 7 7 8 8 10 12 13 13 14 14 15 15 14 14 14 15 15 13 11 13 15 15 16 18 18 18 19 17 15 14 14 14 15 15 15 14 15 14 14 15 15 15 13 13 13 12 10 10 10 9 9 9 9 9 9 8 8 7 7 7 7 7 6 6 5
6 5 5 5 5 4 3 3 3 4 4 4 3 3 3 3 3 3 4 5 6 6 6 6 6 6 7 9 10 10 11 13 13 14 14 14 14 15 15 15 13 11 12 14 14 15 17 17 17 18 17 15 14 15 15 16 15 14 13 13 14 14 13 13 13 13 13 12 11 10 10 9 9 10 9 8 9 9 8 8 8 7 6 7 6 6 5 4
7 6 5 5 4 3 3 3 3 4 3 3 3 2 3 3 3 3 4 4 4 5 5 5 6 6 7 7 7 8 9 11 13 14 14 15 15 15 15 15 14 12 12 13 14 15 17 17 17 17 16 15 15 15 15 16 15 14 13 13 14 14 13 13 13 13 13 13 12 12 11 10 11 11 10 9 9 9 8 7 7 6 6 6 6 5 5 5
7 6 6 5 4 3 3 3 3 4 3 3 2 2 2 2 2 3 3 3 3 4 4 5 6 6 7 7 7 7 8 10 12 13 14 15 16 16 15 15 14 13 13 13 12 13 15 16 17 18 17 15 15 16 15 15 15 14 13 13 13 14 14 14 14 14 14 14 14 14 14 13 13 12 11 10 9 8 8 7 7 7 7 6 5 5 5 5
7 7 6 5 4 3 3 3 3 3 3 2 2 2 2 2 2 3 4 3 4 4 4 5 6 6 7 8 7 7 9 11 12 13 13 14 15 16 16 16 15 14 13 13 11 10 12 14 15 17 18 16 16 16 16 16 17 16 14 13 14 14 14 14 14 14 14 14 15 15 14 14 14 13 12 11 9 8 8 8 8 8 7 6 6 6 6 5
Wind_Direction
259 259 259 259 260 260 261 261 262 262 262 262 262 263 263 263 263 263 263 263 264 263 263 264 264 264 264 264 265 266 267 266 263 259 254 252 251 249 251 251 246 242 238 235 232 230 231 233 233 233 237 240 244 244 241 244 246 247 250 252 254 255 257 255 254 257 258 262 265 268 271 273 278 279 278 272 259 257 253 242 237 236 240 247 248 236 227 228
258 258 259 258 259 260 260 261 262 262 262 262 262 262 263 263 263 263 263 262 262 262 262 263 263 264 264 264 265 266 266 265 261 255 249 249 251 250 250 248 243 238 235 233 230 229 230 231 231 232 238 241 243 243 241 244 245 248 252 253 254 258 261 259 258 259 259 263 267 268 270 271 274 275 275 272 267 263 253 241 235 234 237 239 234 230 229 230
257 258 258 258 258 259 259 260 261 261 261 261 261 262 262 263 263 262 262 262 262 262 262 262 262 263 263 263 264 265 265 262 256 249 246 249 253 251 248 245 240 235 235 234 232 232 234 233 230 232 238 242 243 242 242 243 244 249 251 253 256 259 261 258 257 258 260 264 266 267 269 268 270 271 270 270 268 260 251 247 241 235 233 231 230 229 228 231
256 257 257 258 258 258 259 260 260 261 261 261 261 262 262 262 263 263 263 263 263 263 263 263 263 263 263 263 263 263 263 259 250 246 249 253 257 252 246 243 236 233 236 236 234 236 238 235 232 235 240 242 243 243 243 241 243 249 250 254 260 260 260 256 255 258 261 264 265 266 266 266 269 268 266 266 262 253 251 254 250 239 228 227 228 227 227 231
255 256 257 257 258 258 258 259 260 261 261 262 262 262 262 262 263 263 263 263 263 264 264 264 264 265 264 263 264 262 260 255 247 250 255 258 259 252 244 238 231 231 234 234 233 235 236 233 233 236 241 243 241 243 243 240 245 252 251 254 258 260 260 257 256 261 263 263 263 264 264 265 267 265 262 261 257 256 259 257 249 237 226 226 226 224 228 231
255 255 256 257 257 258 258 259 260 260 261 262 262 262 262 262 263 263 263 263 263 263 264 264 265 265 265 264 263 258 255 253 252 256 260 259 255 247 239 231 228 231 232 230 230 232 232 232 234 237 241 243 241 243 245 241 245 253 254 254 256 258 260 259 261 263 263 262 262 263 263 262 263 261 259 257 258 260 260 254 245 232 224 225 224 224 227 227
254 255 256 257 257 258 258 258 259 259 260 261 262 262 262 263 263 263 263 263 263 264 263 264 264 264 265 263 259 253 252 254 255 258 259 255 248 240 232 226 227 230 229 229 229 230 231 231 234 238 240 243 242 241 244 242 244 251 255 255 257 258 259 260 262 262 262 261 261 262 260 258 259 260 257 256 259 259 256 248 238 228 222 223 223 224 224 224
253 254 255 256 257 257 258 258 258 259 260 260 261 262 262 263 263 263 263 263 263 263 263 263 263 263 264 261 256 253 252 252 253 256 254 247 240 234 228 226 229 230 229 229 229 230 231 232 234 238 240 242 243 241 241 244 245 249 254 257 258 259 259 260 259 259 260 259 260 259 257 256 257 259 256 256 257 255 249 239 228 223 221 222 223 223 223 225
252 253 254 255 256 257 258 258 259 259 259 260 261 261 262 262 263 263 262 263 263 263 263 263 263 262 261 257 256 255 251 248 251 253 249 241 236 232 230 230 230 230 231 232 233 233 233 235 235 238 244 244 242 241 239 244 249 249 252 257 259 260 260 261 259 258 259 257 257 256 254 255 255 255 253 250 249 248 241 231 227 223 220 222 223 223 223 224
252 253 254 255 256 257 258 259 259 259 260 260 261 262 263 263 264 264 263 264 263 264 263 263 263 261 259 255 254 253 250 247 248 247 243 238 234 232 234 233 230 232 234 234 236 236 236 240 238 240 248 245 242 242 239 244 255 255 254 258 259 260 261 261 260 259 259 256 254 253 252 254 251 248 246 243 241 242 235 228 228 224 221 221 222 223 224 225
253 254 255 256 256 258 259 259 259 260 260 261 262 263 264 264 265 265 265 265 264 264 263 263 262 260 258 255 253 252 250 248 244 241 240 235 232 234 235 232 231 234 236 236 238 237 240 244 240 240 246 243 241 243 242 247 258 259 258 260 259 259 260 259 259 259 259 256 252 252 253 253 248 243 243 242 240 239 234 230 227 223 221 220 220 223 225 227
253 255 255 256 257 258 259 259 260 260 261 262 263 264 265 265 266 266 265 265 264 263 262 261 259 259 258 254 252 252 250 247 243 240 238 235 235 236 235 233 234 237 238 238 239 238 240 243 238 238 245 244 240 244 246 248 256 258 258 261 260 259 259 256 257 258 257 255 254 253 253 249 242 240 239 238 239 237 233 230 225 223 222 220 222 224 226 227
253 255 256 257 258 258 259 260 260 261 262 263 265 266 266 267 267 266 265 264 263 261 260 259 257 258 256 253 252 251 248 245 242 241 238 236 237 237 237 237 237 238 241 241 240 238 239 241 238 240 246 244 241 248 251 249 255 258 256 259 261 260 256 252 255 258 254 252 252 249 249 245 236 235 235 234 236 233 231 228 225 225 223 222 222 224 226 224
253 255 256 257 258 259 260 260 261 262 263 264 265 266 268 268 267 266 265 263 260 258 257 256 256 256 254 253 254 251 248 246 244 242 239 238 238 239 239 239 239 239 240 241 241 239 239 239 240 244 246 246 246 248 250 250 253 256 256 256 258 259 254 246 252 255 252 250 246 243 244 242 233 231 232 233 234 232 231 227 224 226 224 221 221 223 224 222
252 254 255 257 258 260 261 261 262 263 264 265 266 268 269 268 266 265 264 261 258 255 254 254 255 255 254 253 253 252 248 246 245 243 241 239 239 241 240 237 238 238 238 240 241 241 239 237 239 243 242 244 248 246 247 251 251 252 256 255 252 254 253 248 250 253 253 251 243 241 243 241 236 235 234 233 234 233 233 229 224 226 226 224 221 222 223 222
252 254 255 257 258 260 262 263 264 265 266 267 268 270 268 267 266 264 263 260 256 253 252 253 252 253 256 254 249 249 246 243 245 243 240 239 239 241 239 235 236 235 236 239 241 242 239 235 238 243 242 242 244 245 248 250 250 250 253 256 251 251 254 251 248 248 252 252 243 241 244 243 239 238 234 233 235 235 236 232 226 225 227 226 223 222 222 221
253 254 256 257 259 261 262 264 265 266 267 268 270 269 266 265 264 262 260 258 255 253 252 253 252 252 254 251 248 248 245 241 242 241 239 239 239 239 236 234 234 233 234 237 240 241 236 235 240 243 244 243 243 245 247 249 250 248 248 254 253 251 254 253 247 245 249 251 247 243 245 246 245 242 236 233 235 236 237 234 229 226 226 227 226 223 222 221
255 256 257 259 260 261 263 265 266 267 268 270 270 267 264 263 261 260 258 256 254 253 253 251 249 252 251 247 248 248 243 240 241 242 241 240 237 235 234 233 231 229 233 237 239 238 237 238 240 243 243 242 242 241 243 249 253 249 247 251 252 249 250 250 248 248 250 252 250 246 246 246 247 245 238 234 235 236 237 235 232 229 227 229 229 225 222 221
256 257 259 260 261 262 264 265 266 267 269 270 268 265 262 261 260 258 255 252 251 250 253 248 243 250 251 246 247 247 244 243 244 243 241 239 234 232 233 233 228 228 233 237 237 236 238 241 241 242 241 239 239 239 241 251 257 253 250 253 254 250 248 248 249 253 255 255 252 249 248 247 245 243 239 236 236 237 238 236 234 232 229 230 230 228 224 221
257 258 259 261 262 264 265 266 267 268 269 268 265 262 260 260 258 254 251 250 249 251 258 252 245 251 252 247 245 245 244 242 242 240 238 236 231 229 230 229 228 231 235 237 237 236 239 243 242 241 241 240 239 238 243 251 253 252 253 254 253 252 252 248 247 252 255 256 254 251 250 248 246 245 241 238 238 239 239 236 234 233 231 230 230 230 227 223
259 259 261 262 263 265 266 267 268 269 268 264 261 259 260 261 259 257 256 254 250 251 255 254 250 250 250 248 246 245 244 242 240 239 238 235 229 229 229 227 229 233 234 235 237 239 241 245 243 242 243 243 239 238 243 248 248 249 251 252 251 251 252 248 248 253 254 255 255 252 250 249 247 246 243 240 241 241 240 237 235 234 232 231 230 229 228 224
261 261 263 264 265 266 266 267 268 268 264 259 257 257 259 260 258 259 261 258 254 251 252 252 251 250 249 249 246 245 246 245 241 238 236 232 229 230 229 227 230 232 230 232 237 240 243 245 244 242 243 242 239 240 242 243 245 246 246 249 250 250 252 250 249 251 251 253 254 252 251 250 247 246 245 244 244 244 241 239 236 234 233 231 229 228 227 225
261 262 263 264 265 266 266 266 267 263 258 256 256 255 255 257 258 260 258 259 258 252 249 249 248 249 249 249 246 243 243 244 241 237 232 230 231 231 229 227 229 230 229 232 238 242 244 247 244 241 241 239 239 240 239 240 243 242 243 246 247 248 250 250 245 244 249 253 255 256 256 253 250 249 248 247 245 243 241 239 237 235 234 232 230 228 226 224
261 262 263 264 265 265 266 266 263 256 253 255 255 253 254 256 260 262 257 257 257 251 248 247 247 248 248 249 245 239 240 241 240 237 230 228 230 230 230 229 228 231 232 233 238 242 247 249 243 239 239 238 238 236 235 239 241 240 241 243 247 249 250 252 251 251 255 255 252 255 257 254 250 248 248 244 241 240 239 238 237 236 235 233 230 228 226 224
261 261 263 264 264 265 266 263 256 251 254 256 253 250 253 256 259 260 256 256 254 247 244 243 243 244 244 247 244 240 243 242 239 236 229 226 228 228 230 230 230 232 233 234 238 243 247 246 241 240 238 235 235 235 234 237 242 242 240 240 247 252 252 254 254 253 257 254 245 244 252 254 247 243 245 243 239 238 236 236 236 235 234 232 230 227 226 224
260 261 262 263 264 266 262 255 250 252 257 255 249 248 252 257 259 256 254 255 250 243 241 240 240 242 243 245 242 240 245 242 237 235 229 225 226 228 230 229 230 235 235 234 239 245 245 239 237 238 236 232 234 237 234 234 241 244 240 238 244 250 251 252 250 247 252 253 241 238 250 257 247 241 241 240 240 238 236 237 237 236 233 231 229 225 224 222
260 261 262 261 263 263 256 250 252 255 255 250 246 248 254 258 256 252 252 252 247 243 241 239 240 242 247 247 238 237 243 243 236 231 227 225 223 225 230 228 230 235 235 234 240 243 239 235 234 233 232 232 233 236 234 232 238 242 239 240 245 247 247 246 244 242 247 252 243 239 248 256 254 248 241 237 239 240 239 240 239 236 233 229 226 223 222 221
260 260 261 259 260 259 253 251 253 252 250 248 246 250 256 256 250 248 250 248 243 242 240 238 238 241 249 248 236 236 244 245 239 229 224 222 220 223 229 229 229 231 229 231 239 240 233 233 234 231 233 235 234 235 232 228 235 240 238 241 247 247 245 242 239 239 243 249 247 240 242 251 255 249 240 238 240 239 242 244 242 237 232 226 223 220 220 220
259 260 259 258 259 255 250 249 249 247 246 246 247 251 253 250 245 245 249 248 242 239 240 237 235 238 248 248 236 237 241 239 237 230 222 220 220 224 230 231 231 231 228 231 238 239 234 236 236 233 234 236 234 235 231 228 234 239 237 240 245 245 242 237 235 237 238 245 248 239 233 245 255 247 238 238 237 238 245 247 242 236 230 224 220 218 217 217
259 258 256 257 255 249 246 245 245 244 243 245 247 250 247 243 243 243 243 245 240 236 237 236 234 240 252 253 238 233 235 233 231 226 220 218 219 223 229 231 232 232 229 230 236 237 233 236 238 235 235 235 235 234 231 230 232 233 233 235 237 235 233 232 234 237 238 243 246 237 231 243 252 245 238 237 235 242 247 241 234 228 220 216 215 214 214 213
257 255 253 252 247 243 244 243 240 238 239 244 246 245 241 239 244 245 240 241 242 238 234 234 237 241 252 256 241 234 235 231 226 222 219 217 216 219 224 226 227 229 229 230 233 234 231 232 235 234 232 233 234 231 228 228 227 226 228 228 228 226 225 230 230 232 240 245 242 234 232 241 245 240 239 242 242 248 246 233 226 215 206 205 207 208 210 211
254 252 251 247 243 242 241 239 238 238 240 244 243 238 237 239 242 243 240 239 242 240 235 236 241 245 252 253 241 239 240 232 224 221 220 217 216 218 220 221 221 223 227 228 228 230 231 231 231 230 228 227 228 224 220 222 221 221 223 222 224 223 222 229 229 231 241 241 231 229 235 241 241 237 239 245 247 249 242 231 222 207 198 200 201 202 206 209
252 251 249 244 240 239 240 242 243 243 241 240 237 234 237 242 243 241 240 239 240 241 239 242 247 250 252 246 238 239 239 229 221 221 220 218 218 219 220 223 222 223 228 227 223 226 228 229 228 227 226 224 224 222 215 215 217 217 218 219 223 225 223 229 232 234 239 236 230 231 236 239 237 233 237 241 242 244 236 224 216 204 197 200 199 199 201 204
251 249 244 240 239 239 241 242 240 237 234 232 231 229 233 240 242 240 240 241 244 246 246 250 253 252 246 238 238 241 235 226 220 220 220 218 220 222 221 223 224 224 227 225 223 226 226 226 224 223 224 220 221 223 219 217 217 218 219 222 227 229 227 232 237 238 239 236 229 225 231 239 234 228 230 230 229 231 225 213 207 201 198 198 197 198 199 200
249 242 236 235 239 241 238 234 231 227 225 228 227 226 232 239 241 238 240 244 247 250 254 255 253 250 241 232 233 238 235 231 223 220 221 221 223 223 222 223 221 221 223 221 223 225 227 230 223 219 222 218 218 222 221 222 222 218 220 226 229 229 230 236 242 244 245 242 231 224 234 242 233 224 219 218 219 217 213 204 196 196 196 197 197 199 201 202
239 231 229 230 234 235 229 223 220 219 223 226 226 228 235 242 243 240 243 249 250 256 261 254 244 242 238 230 228 231 235 234 226 223 224 224 227 227 226 224 219 218 220 219 220 221 225 229 221 216 221 219 218 218 216 219 221 216 220 225 226 228 234 236 235 234 244 248 239 230 236 232 222 221 218 217 217 208 205 202 191 191 192 193 196 197 200 202
232 227 223 223 225 223 216 211 211 215 223 227 228 234 241 243 245 245 247 251 252 255 258 250 239 240 240 233 227 230 237 234 226 226 225 223 229 229 226 224 219 217 218 219 222 222 224 227 220 218 221 216 216 217 214 217 219 216 220 223 221 226 233 235 234 231 234 241 238 233 237 230 222 224 218 214 215 207 207 207 197 192 191 192 194 194 197 202
228 224 218 219 220 216 210 206 210 218 226 231 233 240 246 243 244 248 249 252 251 251 251 247 242 242 240 236 233 237 243 235 227 227 225 221 227 228 224 222 220 217 217 220 224 222 223 225 218 217 217 210 208 214 215 217 220 221 225 225 220 223 226 225 230 233 233 237 236 231 234 233 229 225 213 208 210 208 208 209 205 199 194 192 192 194 199 202
221 217 214 219 218 213 211 213 221 228 232 236 238 241 246 245 244 247 249 250 250 249 249 246 243 241 241 242 244 242 241 239 234 230 226 223 225 227 225 223 220 217 216 218 222 220 220 224 219 214 213 208 207 213 215 214 216 221 228 227 222 223 225 223 226 232 235 237 234 230 231 231 228 220 209 206 207 209 210 209 209 206 203 202 201 203 206 206
214 214 213 216 216 213 218 227 233 236 237 242 246 245 246 247 247 246 247 249 250 248 248 247 244 243 245 246 246 242 240 243 241 235 229 224 223 225 224 221 218 215 215 218 221 220 218 220 219 212 208 210 210 213 216 214 212 217 222 223 220 220 224 228 229 231 238 239 233 232 233 227 225 222 216 212 212 214 212 209 210 210 211 213 212 211 212 210
210 213 212 215 216 217 228 238 239 241 244 246 249 248 248 252 252 249 247 250 251 249 249 251 248 247 249 247 243 242 243 243 240 235 232 226 223 224 223 224 222 217 215 218 219 219 217 218 219 214 212 214 212 211 216 219 218 219 220 221 221 220 222 227 228 227 233 239 238 239 235 223 225 229 220 216 217 217 213 211 214 214 214 215 211 210 212 214
210 213 213 213 216 224 239 244 242 245 248 247 250 251 251 254 254 253 251 249 249 248 247 250 249 248 249 247 245 245 245 243 239 234 232 229 227 226 225 227 226 221 218 218 218 218 217 217 218 217 217 213 207 209 217 222 223 223 225 223 223 224 223 227 231 225 226 233 236 241 239 227 227 228 217 215 217 214 210 209 212 212 211 209 207 211 217 221
208 211 211 210 217 233 246 245 241 245 245 247 252 250 249 252 251 251 251 248 247 248 247 249 249 247 245 245 246 247 244 242 239 235 233 231 227 228 229 226 223 221 221 219 218 216 215 217 218 218 219 216 213 214 218 222 223 222 224 223 226 228 226 229 235 232 230 230 229 235 235 225 224 223 212 211 210 207 206 204 205 207 207 206 206 213 222 225
202 204 208 211 222 239 247 243 241 244 244 247 250 246 244 249 252 252 252 249 249 250 250 251 250 247 246 246 247 248 245 241 237 235 234 231 227 229 231 226 222 222 222 223 221 214 214 218 217 215 216 216 217 218 219 221 222 221 222 223 227 231 229 230 233 234 236 231 226 234 234 219 217 216 208 207 204 201 204 202 201 203 206 210 212 217 224 227
198 202 210 215 225 239 245 246 246 245 242 243 247 247 244 243 248 255 254 249 250 252 252 254 255 251 249 249 248 248 245 239 236 235 232 230 227 226 227 224 222 223 226 231 229 219 217 220 218 218 219 217 218 220 220 219 219 221 223 223 226 229 227 229 230 232 235 228 225 234 232 210 209 207 202 207 206 203 205 202 200 202 206 211 215 221 227 230
202 208 213 215 224 234 236 240 245 243 238 237 238 246 250 244 242 250 251 247 251 256 254 258 262 254 250 252 249 245 243 238 236 236 233 231 229 226 227 223 220 227 232 232 230 224 221 221 222 224 226 225 224 223 221 220 217 218 220 220 224 227 227 229 230 231 235 231 228 231 221 207 207 203 200 206 206 206 207 205 203 203 207 211 215 222 227 231
209 214 214 214 220 225 224 227 235 236 236 238 240 246 255 254 246 245 250 252 257 263 257 259 267 259 254 257 250 244 244 239 235 235 235 234 230 228 229 224 222 235 236 227 225 225 222 221 223 227 230 233 231 223 220 220 217 215 216 217 221 225 225 227 228 231 235 234 230 222 208 203 203 201 204 207 207 210 210 209 210 206 207 212 213 218 226 234
211 213 212 216 219 217 216 220 225 226 228 232 241 250 256 262 256 250 253 253 256 268 264 259 268 267 261 260 252 245 245 238 232 233 233 233 231 229 229 225 224 235 234 226 225 226 223 222 222 222 226 230 230 224 220 218 215 215 216 217 220 222 223 225 227 232 235 233 230 219 204 200 201 204 211 211 209 212 209 208 213 211 208 212 212 216 227 238
203 200 199 209 215 209 205 210 217 219 222 229 241 255 262 272 273 263 262 258 255 266 270 265 272 274 266 261 254 247 244 238 233 233 233 234 234 231 227 223 223 230 232 228 228 230 227 223 219 218 220 224 228 226 221 216 213 214 216 218 220 220 222 223 226 230 232 228 224 214 203 208 216 217 219 216 209 208 208 210 214 211 209 212 210 211 221 233
198 193 186 191 195 193 193 202 215 214 212 227 241 260 267 271 282 276 269 269 265 265 267 270 278 277 269 264 256 246 244 242 238 237 237 235 233 230 226 224 225 231 232 228 231 235 231 223 219 219 220 224 229 227 222 217 212 212 217 221 222 221 222 225 227 229 229 223 220 216 213 220 226 220 217 218 213 207 206 211 214 213 213 213 210 211 222 229
193 188 184 184 180 186 195 198 212 213 206 220 237 258 271 274 288 282 266 265 274 275 274 278 282 277 265 258 255 253 254 250 245 242 239 235 233 230 227 227 229 232 230 226 231 238 233 225 222 221 221 223 225 223 221 217 212 212 218 225 227 225 224 226 228 231 233 225 219 221 222 223 224 219 214 217 216 211 210 212 215 217 218 219 218 221 226 228
183 180 182 186 179 184 195 191 203 212 205 217 247 267 284 287 288 280 268 261 267 274 281 282 281 278 266 253 253 267 269 259 250 244 237 233 231 229 226 226 228 226 224 222 226 232 227 220 219 220 220 219 218 219 221 221 217 217 223 229 230 227 225 224 226 232 236 229 223 227 227 222 219 215 213 215 215 214 216 218 219 217 217 220 221 224 229 232